Location: Unspecified
(52.4292°N, 19.3359°E)
Time: 21:09:26
(UTC+02:00)

Altair - Pass Details

Date: 28 May 2024
Orbit: 1502 x 1682 km, 47.2° (Epoch: 12 June)

Event Time Altitude Azimuth Distance (km) Brightness Sun altitude
Rises 07:42:24 0° 190° (S) 4,752 10.0 26.3°
Reaches altitude 10° 07:46:23 10° 176° (S) 3,802 9.7 26.9°
Maximum altitude 07:53:07 22° 131° (SE) 3,032 10.1 28.0°
Drops below altitude 10° 08:00:00 10° 87° (E) 3,907 11.3 29.0°
Sets 08:04:08 0° 73° (ENE) 4,917 11.2 29.6°
